Time,TemperatureF,DewpointF,PressureIn,WindDirection,WindDirectionDegrees,WindSpeedMPH,WindSpeedGustMPH,Humidity,HourlyPrecipIn,Conditions,Clouds,dailyrainin,SoftwareType,DateUTC
2013-05-26 00:01:00,59.7,50.3,30.18,NNE,22,0.0,1.0,71,0.00,,,0.00,VWS V14.01,2013-05-26 04:01:00,
2013-05-26 00:02:00,59.7,50.3,30.18,NNE,22,0.0,0.0,71,0.00,,,0.00,VWS V14.01,2013-05-26 04:02:00,
2013-05-26 00:03:00,59.7,50.7,30.17,NNE,22,0.0,0.0,72,0.00,,,0.00,VWS V14.01,2013-05-26 04:03:00,
2013-05-26 00:04:00,59.7,50.7,30.17,NNE,22,0.0,1.0,72,0.00,,,0.00,VWS V14.01,2013-05-26 04:04:00,
2013-05-26 00:09:00,59.6,50.6,30.19,NNE,22,0.0,1.0,72,0.00,,,0.00,VWS V14.01,2013-05-26 04:09:00,
2013-05-26 00:13:00,59.6,50.6,30.19,NNE,22,1.0,1.0,72,0.00,,,0.00,VWS V14.01,2013-05-26 04:13:00,
2013-05-26 00:18:00,59.7,50.7,30.19,NNE,22,0.0,3.0,72,0.00,,,0.00,VWS V14.01,2013-05-26 04:18:00,
2013-05-26 00:23:00,59.6,50.2,30.18,NNE,22,0.0,0.0,71,0.00,,,0.00,VWS V14.01,2013-05-26 04:23:00,
2013-05-26 00:28:00,59.6,50.2,30.18,NNE,24,2.0,2.0,71,0.00,,,0.00,VWS V14.01,2013-05-26 04:28:00,
2013-05-26 00:34:00,59.6,49.8,30.19,NNE,26,0.0,0.0,70,0.00,,,0.00,VWS V14.01,2013-05-26 04:34:00,
2013-05-26 00:39:00,59.7,49.9,30.19,NNE,26,0.0,1.0,70,0.00,,,0.00,VWS V14.01,2013-05-26 04:39:00,
2013-05-26 00:44:00,59.6,49.8,30.19,NNE,26,0.0,1.0,70,0.00,,,0.00,VWS V14.01,2013-05-26 04:44:00,
2013-05-26 00:49:00,59.6,49.8,30.19,NNE,25,0.0,0.0,70,0.00,,,0.00,VWS V14.01,2013-05-26 04:49:00,
2013-05-26 00:54:00,59.5,49.7,30.18,NNE,23,0.0,3.0,70,0.00,,,0.00,VWS V14.01,2013-05-26 04:54:00,
2013-05-26 00:59:00,59.6,49.8,30.19,NNE,19,3.0,3.0,70,0.00,,,0.00,VWS V14.01,2013-05-26 04:59:00,
2013-05-26 01:04:00,59.6,49.8,30.19,NNE,21,1.0,1.0,70,0.00,,,0.00,VWS V14.01,2013-05-26 05:04:00,
2013-05-26 01:09:00,59.6,49.8,30.18,NE,42,4.0,4.0,70,0.00,,,0.00,VWS V14.01,2013-05-26 05:09:00,
2013-05-26 01:14:00,59.6,50.6,30.19,NE,36,2.0,4.0,72,0.00,,,0.00,VWS V14.01,2013-05-26 05:14:00,
2013-05-26 01:19:00,59.3,50.3,30.19,NE,38,0.0,1.0,72,0.00,,,0.00,VWS V14.01,2013-05-26 05:19:00,
2013-05-26 01:24:00,59.0,51.1,30.16,ENE,58,1.0,4.0,75,0.00,,,0.00,VWS V14.01,2013-05-26 05:24:00,
2013-05-26 01:29:00,58.6,51.4,30.18,NE,55,0.0,0.0,77,0.00,,,0.00,VWS V14.01,2013-05-26 05:29:00,
2013-05-26 01:34:00,58.1,52.0,30.17,NE,55,0.0,0.0,80,0.00,,,0.00,VWS V14.01,2013-05-26 05:34:00,
2013-05-26 01:39:00,57.6,52.2,30.17,NE,55,0.0,1.0,82,0.00,,,0.00,VWS V14.01,2013-05-26 05:39:00,
2013-05-26 01:44:00,57.2,52.1,30.17,NE,55,0.0,0.0,83,0.00,,,0.00,VWS V14.01,2013-05-26 05:44:00,
2013-05-26 01:49:00,56.9,52.1,30.18,NE,55,0.0,0.0,84,0.00,,,0.00,VWS V14.01,2013-05-26 05:49:00,
2013-05-26 01:54:00,56.7,52.2,30.17,NE,55,0.0,0.0,85,0.00,,,0.00,VWS V14.01,2013-05-26 05:54:00,
2013-05-26 01:59:00,56.5,52.4,30.17,NE,55,0.0,0.0,86,0.00,,,0.00,VWS V14.01,2013-05-26 05:59:00,
2013-05-26 02:04:00,56.3,52.2,30.17,NE,55,0.0,1.0,86,0.00,,,0.00,VWS V14.01,2013-05-26 06:04:00,
2013-05-26 02:09:00,56.2,52.4,30.17,NE,55,0.0,0.0,87,0.00,,,0.00,VWS V14.01,2013-05-26 06:09:00,
2013-05-26 02:14:00,56.2,52.7,30.17,NE,55,0.0,0.0,88,0.00,,,0.00,VWS V14.01,2013-05-26 06:14:00,
2013-05-26 02:19:00,56.1,52.3,30.17,NE,55,1.0,1.0,87,0.00,,,0.00,VWS V14.01,2013-05-26 06:19:00,
2013-05-26 02:24:00,56.0,52.2,30.17,NE,55,0.0,1.0,87,0.00,,,0.00,VWS V14.01,2013-05-26 06:24:00,
2013-05-26 02:29:00,56.0,52.2,30.18,NE,55,1.0,1.0,87,0.00,,,0.00,VWS V14.01,2013-05-26 06:29:00,
2013-05-26 02:34:00,56.0,52.2,30.18,NE,55,0.0,0.0,87,0.00,,,0.00,VWS V14.01,2013-05-26 06:34:00,
2013-05-26 02:39:00,55.9,52.4,30.18,NE,55,0.0,2.0,88,0.00,,,0.00,VWS V14.01,2013-05-26 06:39:00,
2013-05-26 02:44:00,55.9,52.4,30.17,NE,55,0.0,0.0,88,0.00,,,0.00,VWS V14.01,2013-05-26 06:44:00,
2013-05-26 02:49:00,55.9,52.1,30.17,NE,55,2.0,3.0,87,0.00,,,0.00,VWS V14.01,2013-05-26 06:49:00,
2013-05-26 02:54:00,55.9,52.1,30.18,NE,55,0.0,0.0,87,0.00,,,0.00,VWS V14.01,2013-05-26 06:54:00,
2013-05-26 02:59:00,55.9,51.8,30.18,NE,55,1.0,1.0,86,0.00,,,0.00,VWS V14.01,2013-05-26 06:59:00,
2013-05-26 03:04:00,55.9,51.8,30.17,NE,55,0.0,0.0,86,0.00,,,0.00,VWS V14.01,2013-05-26 07:04:00,
2013-05-26 03:09:00,55.9,51.8,30.17,NE,55,0.0,0.0,86,0.00,,,0.00,VWS V14.01,2013-05-26 07:09:00,
2013-05-26 03:14:00,55.9,51.8,30.17,NE,53,2.0,3.0,86,0.00,,,0.00,VWS V14.01,2013-05-26 07:14:00,
2013-05-26 03:19:00,55.9,51.5,30.17,NE,54,0.0,0.0,85,0.00,,,0.00,VWS V14.01,2013-05-26 07:19:00,
2013-05-26 03:24:00,55.9,51.8,30.17,NE,54,0.0,0.0,86,0.00,,,0.00,VWS V14.01,2013-05-26 07:24:00,
2013-05-26 03:29:00,55.9,51.5,30.17,NE,54,0.0,0.0,85,0.00,,,0.00,VWS V14.01,2013-05-26 07:29:00,
2013-05-26 03:34:00,55.9,51.5,30.17,NE,54,0.0,0.0,85,0.00,,,0.00,VWS V14.01,2013-05-26 07:34:00,
2013-05-26 03:39:00,55.9,51.1,30.18,NE,54,0.0,0.0,84,0.00,,,0.00,VWS V14.01,2013-05-26 07:39:00,
2013-05-26 03:44:00,56.0,51.2,30.18,NE,55,0.0,0.0,84,0.00,,,0.00,VWS V14.01,2013-05-26 07:44:00,
2013-05-26 03:49:00,56.0,51.2,30.18,NE,55,0.0,0.0,84,0.00,,,0.00,VWS V14.01,2013-05-26 07:49:00,
2013-05-26 03:54:00,56.0,51.2,30.17,NE,55,0.0,2.0,84,0.00,,,0.00,VWS V14.01,2013-05-26 07:54:00,
2013-05-26 03:59:00,55.9,51.1,30.17,NE,55,0.0,0.0,84,0.00,,,0.00,VWS V14.01,2013-05-26 07:59:00,
2013-05-26 04:05:00,55.9,51.1,30.18,NE,55,0.0,0.0,84,0.00,,,0.00,VWS V14.01,2013-05-26 08:05:00,
2013-05-26 04:10:00,55.8,51.0,30.18,NE,55,0.0,0.0,84,0.00,,,0.00,VWS V14.01,2013-05-26 08:10:00,
2013-05-26 04:15:00,55.8,51.0,30.18,NE,55,0.0,1.0,84,0.00,,,0.00,VWS V14.01,2013-05-26 08:15:00,
2013-05-26 04:20:00,55.7,51.0,30.18,NE,55,0.0,0.0,84,0.00,,,0.00,VWS V14.01,2013-05-26 08:20:00,
2013-05-26 04:25:00,55.7,51.0,30.17,NE,55,0.0,0.0,84,0.00,,,0.00,VWS V14.01,2013-05-26 08:25:00,
2013-05-26 04:30:00,55.7,51.0,30.17,NE,55,1.0,1.0,84,0.00,,,0.00,VWS V14.01,2013-05-26 08:30:00,
2013-05-26 04:35:00,55.7,51.3,30.18,NE,55,0.0,0.0,85,0.00,,,0.00,VWS V14.01,2013-05-26 08:35:00,
2013-05-26 04:40:00,55.6,51.2,30.17,ENE,57,0.0,0.0,85,0.00,,,0.00,VWS V14.01,2013-05-26 08:40:00,
2013-05-26 04:45:00,55.5,51.1,30.18,ENE,57,0.0,0.0,85,0.00,,,0.00,VWS V14.01,2013-05-26 08:45:00,
2013-05-26 04:50:00,55.5,51.1,30.18,ENE,57,0.0,0.0,85,0.00,,,0.00,VWS V14.01,2013-05-26 08:50:00,
2013-05-26 04:55:00,55.4,51.0,30.18,ENE,57,0.0,0.0,85,0.00,,,0.00,VWS V14.01,2013-05-26 08:55:00,
2013-05-26 05:00:00,55.4,51.3,30.17,ENE,57,0.0,0.0,86,0.00,,,0.00,VWS V14.01,2013-05-26 09:00:00,
2013-05-26 05:05:00,55.3,51.2,30.18,NE,56,1.0,1.0,86,0.00,,,0.00,VWS V14.01,2013-05-26 09:05:00,
2013-05-26 05:10:00,55.3,51.5,30.17,ENE,57,0.0,0.0,87,0.00,,,0.00,VWS V14.01,2013-05-26 09:10:00,
2013-05-26 05:15:00,55.2,51.4,30.17,NE,56,0.0,1.0,87,0.00,,,0.00,VWS V14.01,2013-05-26 09:15:00,
2013-05-26 05:20:00,55.1,51.6,30.17,ENE,57,0.0,0.0,88,0.00,,,0.00,VWS V14.01,2013-05-26 09:20:00,
2013-05-26 05:25:00,55.0,51.5,30.18,ENE,57,0.0,0.0,88,0.00,,,0.00,VWS V14.01,2013-05-26 09:25:00,
2013-05-26 05:30:00,54.9,51.7,30.18,NE,56,0.0,0.0,89,0.00,,,0.00,VWS V14.01,2013-05-26 09:30:00,
2013-05-26 05:35:00,54.7,51.5,30.18,ENE,57,0.0,0.0,89,0.00,,,0.00,VWS V14.01,2013-05-26 09:35:00,
2013-05-26 05:40:00,54.6,51.7,30.18,ENE,57,0.0,0.0,90,0.00,,,0.00,VWS V14.01,2013-05-26 09:40:00,
2013-05-26 05:45:00,54.5,51.6,30.18,NE,56,0.0,0.0,90,0.00,,,0.00,VWS V14.01,2013-05-26 09:45:00,
2013-05-26 05:50:00,54.4,51.8,30.18,ENE,57,0.0,0.0,91,0.00,,,0.00,VWS V14.01,2013-05-26 09:50:00,
2013-05-26 05:55:00,54.4,51.5,30.18,ENE,57,0.0,0.0,90,0.00,,,0.00,VWS V14.01,2013-05-26 09:55:00,
2013-05-26 06:00:00,54.4,51.5,30.18,ENE,57,0.0,0.0,90,0.00,,,0.00,VWS V14.01,2013-05-26 10:00:00,
2013-05-26 06:05:00,54.5,51.9,30.18,ENE,57,0.0,0.0,91,0.00,,,0.00,VWS V14.01,2013-05-26 10:05:00,
2013-05-26 06:10:00,54.5,51.9,30.17,NE,56,0.0,0.0,91,0.00,,,0.00,VWS V14.01,2013-05-26 10:10:00,
2013-05-26 06:15:00,54.6,51.7,30.17,ENE,57,0.0,0.0,90,0.00,,,0.00,VWS V14.01,2013-05-26 10:15:00,
2013-05-26 06:20:00,54.6,51.7,30.18,NE,56,0.0,0.0,90,0.00,,,0.00,VWS V14.01,2013-05-26 10:20:00,
2013-05-26 06:25:00,54.6,52.0,30.18,ENE,57,0.0,0.0,91,0.00,,,0.00,VWS V14.01,2013-05-26 10:25:00,
2013-05-26 06:30:00,54.6,52.0,30.18,NE,56,0.0,0.0,91,0.00,,,0.00,VWS V14.01,2013-05-26 10:30:00,
2013-05-26 06:35:00,54.6,52.0,30.18,ENE,57,0.0,0.0,91,0.00,,,0.00,VWS V14.01,2013-05-26 10:35:00,
2013-05-26 06:40:00,54.5,51.6,30.18,ENE,57,0.0,0.0,90,0.00,,,0.00,VWS V14.01,2013-05-26 10:40:00,
2013-05-26 06:45:00,54.5,51.6,30.17,NE,56,0.0,0.0,90,0.00,,,0.00,VWS V14.01,2013-05-26 10:45:00,
2013-05-26 06:50:00,54.6,51.7,30.18,ENE,57,1.0,1.0,90,0.00,,,0.00,VWS V14.01,2013-05-26 10:50:00,
2013-05-26 06:55:00,54.7,51.5,30.18,ENE,57,0.0,0.0,89,0.00,,,0.00,VWS V14.01,2013-05-26 10:55:00,
2013-05-26 07:00:00,54.8,51.3,30.18,ENE,57,0.0,0.0,88,0.00,,,0.00,VWS V14.01,2013-05-26 11:00:00,
2013-05-26 07:05:00,55.0,51.8,30.18,ENE,57,0.0,0.0,89,0.00,,,0.00,VWS V14.01,2013-05-26 11:05:00,
2013-05-26 07:10:00,55.1,52.2,30.17,NE,56,0.0,0.0,90,0.00,,,0.00,VWS V14.01,2013-05-26 11:10:00,
2013-05-26 07:15:00,55.1,52.2,30.18,ENE,57,0.0,0.0,90,0.00,,,0.00,VWS V14.01,2013-05-26 11:15:00,
2013-05-26 07:20:00,55.2,52.0,30.18,ENE,57,0.0,0.0,89,0.00,,,0.00,VWS V14.01,2013-05-26 11:20:00,
2013-05-26 07:25:00,55.2,52.0,30.18,ENE,57,0.0,0.0,89,0.00,,,0.00,VWS V14.01,2013-05-26 11:25:00,
2013-05-26 07:30:00,55.3,52.1,30.18,ENE,57,0.0,0.0,89,0.00,,,0.00,VWS V14.01,2013-05-26 11:30:00,
2013-05-26 07:35:00,55.4,53.1,30.18,NE,56,0.0,0.0,92,0.00,,,0.00,VWS V14.01,2013-05-26 11:35:00,
2013-05-26 07:41:00,55.5,52.3,30.18,ENE,57,0.0,0.0,89,0.00,,,0.00,VWS V14.01,2013-05-26 11:41:00,
2013-05-26 07:46:00,55.6,52.4,30.18,ENE,57,0.0,0.0,89,0.00,,,0.00,VWS V14.01,2013-05-26 11:46:00,
2013-05-26 07:51:00,55.7,52.8,30.18,NE,56,0.0,0.0,90,0.00,,,0.00,VWS V14.01,2013-05-26 11:51:00,
2013-05-26 07:56:00,55.7,52.2,30.18,NE,56,0.0,0.0,88,0.00,,,0.00,VWS V14.01,2013-05-26 11:56:00,
2013-05-26 08:01:00,55.8,52.6,30.18,NE,56,0.0,0.0,89,0.00,,,0.00,VWS V14.01,2013-05-26 12:01:00,
2013-05-26 08:06:00,55.9,52.7,30.18,ENE,57,0.0,0.0,89,0.00,,,0.00,VWS V14.01,2013-05-26 12:06:00,
2013-05-26 08:11:00,56.1,52.9,30.18,ENE,57,0.0,0.0,89,0.00,,,0.00,VWS V14.01,2013-05-26 12:11:00,
2013-05-26 08:16:00,56.4,53.2,30.18,NE,56,0.0,0.0,89,0.00,,,0.00,VWS V14.01,2013-05-26 12:16:00,
2013-05-26 08:21:00,56.8,53.6,30.18,ENE,57,0.0,0.0,89,0.00,,,0.00,VWS V14.01,2013-05-26 12:21:00,
2013-05-26 08:26:00,57.1,53.6,30.17,NE,56,0.0,0.0,88,0.00,,,0.00,VWS V14.01,2013-05-26 12:26:00,
2013-05-26 08:31:00,57.4,53.6,30.17,ENE,57,0.0,0.0,87,0.00,,,0.00,VWS V14.01,2013-05-26 12:31:00,
2013-05-26 08:36:00,57.6,53.8,30.17,NE,56,0.0,0.0,87,0.00,,,0.00,VWS V14.01,2013-05-26 12:36:00,
2013-05-26 08:41:00,57.8,53.7,30.17,ENE,57,0.0,1.0,86,0.00,,,0.00,VWS V14.01,2013-05-26 12:41:00,
2013-05-26 08:46:00,58.0,53.5,30.17,ENE,57,1.0,1.0,85,0.00,,,0.00,VWS V14.01,2013-05-26 12:46:00,
2013-05-26 08:51:00,58.1,53.0,30.17,NE,56,1.0,2.0,83,0.00,,,0.00,VWS V14.01,2013-05-26 12:51:00,
2013-05-26 08:56:00,58.2,53.4,30.17,ENE,57,1.0,1.0,84,0.00,,,0.00,VWS V14.01,2013-05-26 12:56:00,
2013-05-26 09:01:00,58.3,53.2,30.17,ENE,57,0.0,0.0,83,0.00,,,0.00,VWS V14.01,2013-05-26 13:01:00,
2013-05-26 09:06:00,58.5,53.0,30.17,NE,56,2.0,2.0,82,0.00,,,0.00,VWS V14.01,2013-05-26 13:06:00,
2013-05-26 09:11:00,58.7,53.2,30.18,ENE,57,0.0,0.0,82,0.00,,,0.00,VWS V14.01,2013-05-26 13:11:00,
2013-05-26 09:16:00,59.0,53.2,30.18,NE,56,1.0,3.0,81,0.00,,,0.00,VWS V14.01,2013-05-26 13:16:00,
2013-05-26 09:21:00,59.0,52.8,30.18,ENE,57,0.0,0.0,80,0.00,,,0.00,VWS V14.01,2013-05-26 13:21:00,
2013-05-26 09:26:00,59.0,52.8,30.18,ENE,61,0.0,2.0,80,0.00,,,0.00,VWS V14.01,2013-05-26 13:26:00,
2013-05-26 09:31:00,59.4,53.2,30.18,ENE,62,0.0,0.0,80,0.00,,,0.00,VWS V14.01,2013-05-26 13:31:00,
2013-05-26 09:36:00,59.9,54.4,30.18,ENE,62,0.0,1.0,82,0.00,,,0.00,VWS V14.01,2013-05-26 13:36:00,
2013-05-26 09:41:00,60.1,53.6,30.19,ENE,62,0.0,1.0,79,0.00,,,0.00,VWS V14.01,2013-05-26 13:41:00,
2013-05-26 09:46:00,60.2,53.0,30.19,ENE,60,0.0,0.0,77,0.00,,,0.00,VWS V14.01,2013-05-26 13:46:00,
2013-05-26 09:51:00,60.3,53.4,30.19,ENE,60,0.0,0.0,78,0.00,,,0.00,VWS V14.01,2013-05-26 13:51:00,
2013-05-26 09:56:00,60.5,53.6,30.19,ENE,60,0.0,0.0,78,0.00,,,0.00,VWS V14.01,2013-05-26 13:56:00,
2013-05-26 10:01:00,60.7,53.5,30.19,ENE,60,0.0,1.0,77,0.00,,,0.00,VWS V14.01,2013-05-26 14:01:00,
2013-05-26 10:06:00,61.2,54.3,30.19,ENE,60,0.0,0.0,78,0.00,,,0.00,VWS V14.01,2013-05-26 14:06:00,
2013-05-26 10:11:00,61.5,53.5,30.19,ENE,60,0.0,0.0,75,0.00,,,0.00,VWS V14.01,2013-05-26 14:11:00,
2013-05-26 10:16:00,61.8,53.4,30.19,ENE,60,1.0,2.0,74,0.00,,,0.00,VWS V14.01,2013-05-26 14:16:00,
2013-05-26 10:21:00,62.2,53.5,30.19,ENE,60,1.0,1.0,73,0.00,,,0.00,VWS V14.01,2013-05-26 14:21:00,
2013-05-26 10:26:00,62.4,53.6,30.19,ENE,60,1.0,1.0,73,0.00,,,0.00,VWS V14.01,2013-05-26 14:26:00,
2013-05-26 10:31:00,62.7,53.2,30.19,ENE,60,0.0,1.0,71,0.00,,,0.00,VWS V14.01,2013-05-26 14:31:00,
2013-05-26 10:36:00,62.9,53.4,30.19,ENE,59,0.0,0.0,71,0.00,,,0.00,VWS V14.01,2013-05-26 14:36:00,
2013-05-26 10:41:00,63.2,53.7,30.19,ENE,59,0.0,2.0,71,0.00,,,0.00,VWS V14.01,2013-05-26 14:41:00,
2013-05-26 10:47:00,63.4,53.5,30.19,ENE,59,0.0,1.0,70,0.00,,,0.00,VWS V14.01,2013-05-26 14:47:00,
2013-05-26 10:52:00,63.6,53.3,30.19,ENE,59,0.0,1.0,69,0.00,,,0.00,VWS V14.01,2013-05-26 14:52:00,
2013-05-26 10:57:00,63.7,53.3,30.19,ENE,59,1.0,2.0,69,0.00,,,0.00,VWS V14.01,2013-05-26 14:57:00,
2013-05-26 11:02:00,63.9,53.1,30.19,ENE,59,2.0,2.0,68,0.00,,,0.00,VWS V14.01,2013-05-26 15:02:00,
2013-05-26 11:07:00,64.0,53.6,30.19,ENE,59,1.0,2.0,69,0.00,,,0.00,VWS V14.01,2013-05-26 15:07:00,
2013-05-26 11:12:00,64.2,53.8,30.20,ENE,59,0.0,1.0,69,0.00,,,0.00,VWS V14.01,2013-05-26 15:12:00,
2013-05-26 11:17:00,64.4,54.0,30.20,ENE,59,0.0,0.0,69,0.00,,,0.00,VWS V14.01,2013-05-26 15:17:00,
2013-05-26 11:22:00,64.7,54.3,30.19,NE,56,0.0,0.0,69,0.00,,,0.00,VWS V14.01,2013-05-26 15:22:00,
2013-05-26 11:27:00,64.8,54.4,30.19,ENE,59,0.0,1.0,69,0.00,,,0.00,VWS V14.01,2013-05-26 15:27:00,
2013-05-26 11:32:00,65.0,55.0,30.19,ENE,60,4.0,4.0,70,0.00,,,0.00,VWS V14.01,2013-05-26 15:32:00,
2013-05-26 11:37:00,65.1,54.3,30.19,North,360,0.0,4.0,68,0.00,,,0.00,VWS V14.01,2013-05-26 15:37:00,
2013-05-26 11:42:00,65.3,54.5,30.20,North,360,0.0,1.0,68,0.00,,,0.00,VWS V14.01,2013-05-26 15:42:00,
2013-05-26 11:47:00,65.4,54.6,30.20,North,5,0.0,0.0,68,0.00,,,0.00,VWS V14.01,2013-05-26 15:47:00,
2013-05-26 11:52:00,65.7,56.0,30.19,North,5,1.0,1.0,71,0.00,,,0.00,VWS V14.01,2013-05-26 15:52:00,
2013-05-26 11:57:00,66.0,54.7,30.19,North,360,0.0,1.0,67,0.00,,,0.00,VWS V14.01,2013-05-26 15:57:00,
2013-05-26 12:02:00,66.1,55.2,30.20,North,10,1.0,2.0,68,0.00,,,0.00,VWS V14.01,2013-05-26 16:02:00,
2013-05-26 12:07:00,66.3,55.4,30.20,North,10,3.0,4.0,68,0.00,,,0.00,VWS V14.01,2013-05-26 16:07:00,
2013-05-26 12:12:00,66.5,54.8,30.19,North,11,0.0,2.0,66,0.00,,,0.00,VWS V14.01,2013-05-26 16:12:00,
2013-05-26 12:17:00,66.8,55.5,30.19,East,85,1.0,1.0,67,0.00,,,0.00,VWS V14.01,2013-05-26 16:17:00,
2013-05-26 12:22:00,67.3,55.6,30.20,East,85,0.0,1.0,66,0.00,,,0.00,VWS V14.01,2013-05-26 16:22:00,
2013-05-26 12:27:00,67.7,56.0,30.20,East,84,2.0,3.0,66,0.00,,,0.00,VWS V14.01,2013-05-26 16:27:00,
2013-05-26 12:32:00,67.9,55.3,30.20,East,85,0.0,3.0,64,0.00,,,0.00,VWS V14.01,2013-05-26 16:32:00,
2013-05-26 12:37:00,67.9,55.7,30.20,East,85,0.0,1.0,65,0.00,,,0.00,VWS V14.01,2013-05-26 16:37:00,
2013-05-26 12:42:00,68.1,55.0,30.20,East,85,1.0,1.0,63,0.00,,,0.00,VWS V14.01,2013-05-26 16:42:00,
2013-05-26 12:47:00,68.3,55.2,30.19,ENE,71,1.0,4.0,63,0.00,,,0.00,VWS V14.01,2013-05-26 16:47:00,
2013-05-26 12:52:00,68.4,56.2,30.19,ENE,67,2.0,2.0,65,0.00,,,0.00,VWS V14.01,2013-05-26 16:52:00,
2013-05-26 12:57:00,68.8,56.1,30.19,ENE,61,0.0,1.0,64,0.00,,,0.00,VWS V14.01,2013-05-26 16:57:00,
2013-05-26 13:02:00,68.8,56.1,30.19,ENE,64,0.0,2.0,64,0.00,,,0.00,VWS V14.01,2013-05-26 17:02:00,
2013-05-26 13:07:00,69.1,56.0,30.19,ENE,63,2.0,3.0,63,0.00,,,0.00,VWS V14.01,2013-05-26 17:07:00,
2013-05-26 13:12:00,69.9,57.2,30.19,ENE,63,1.0,2.0,64,0.00,,,0.00,VWS V14.01,2013-05-26 17:12:00,
2013-05-26 13:17:00,70.1,55.6,30.18,ENE,63,0.0,1.0,60,0.00,,,0.00,VWS V14.01,2013-05-26 17:17:00,
2013-05-26 13:22:00,70.4,55.9,30.18,ENE,63,0.0,1.0,60,0.00,,,0.00,VWS V14.01,2013-05-26 17:22:00,
2013-05-26 13:27:00,70.5,58.2,30.17,NE,51,2.0,2.0,65,0.00,,,0.00,VWS V14.01,2013-05-26 17:27:00,
2013-05-26 13:32:00,70.7,56.6,30.17,NE,51,0.0,2.0,61,0.00,,,0.00,VWS V14.01,2013-05-26 17:32:00,
2013-05-26 13:37:00,71.2,56.6,30.17,NE,51,2.0,2.0,60,0.00,,,0.00,VWS V14.01,2013-05-26 17:37:00,
2013-05-26 13:42:00,71.2,57.1,30.17,NE,51,3.0,5.0,61,0.00,,,0.00,VWS V14.01,2013-05-26 17:42:00,
2013-05-26 13:47:00,70.8,57.2,30.17,NNW,345,2.0,2.0,62,0.00,,,0.00,VWS V14.01,2013-05-26 17:47:00,
2013-05-26 13:52:00,70.7,56.2,30.17,NNW,329,0.0,1.0,60,0.00,,,0.00,VWS V14.01,2013-05-26 17:52:00,
2013-05-26 13:57:00,70.8,56.7,30.16,NNW,327,2.0,2.0,61,0.00,,,0.00,VWS V14.01,2013-05-26 17:57:00,
2013-05-26 14:02:00,71.3,56.7,30.16,NW,313,3.0,3.0,60,0.00,,,0.00,VWS V14.01,2013-05-26 18:02:00,
2013-05-26 14:07:00,71.6,57.0,30.15,WNW,286,2.0,3.0,60,0.00,,,0.00,VWS V14.01,2013-05-26 18:07:00,
2013-05-26 14:12:00,71.9,56.8,30.15,West,259,2.0,4.0,59,0.00,,,0.00,VWS V14.01,2013-05-26 18:12:00,
2013-05-26 14:18:00,72.1,56.0,30.15,West,259,0.0,1.0,57,0.00,,,0.00,VWS V14.01,2013-05-26 18:18:00,
2013-05-26 14:23:00,72.2,55.7,30.14,WSW,256,1.0,3.0,56,0.00,,,0.00,VWS V14.01,2013-05-26 18:23:00,
2013-05-26 14:28:00,72.3,57.7,30.13,NNE,26,2.0,4.0,60,0.00,,,0.00,VWS V14.01,2013-05-26 18:28:00,
2013-05-26 14:33:00,72.6,57.5,30.14,NE,49,0.0,0.0,59,0.00,,,0.00,VWS V14.01,2013-05-26 18:33:00,
2013-05-26 14:38:00,73.1,56.0,30.14,SW,216,4.0,5.0,55,0.00,,,0.00,VWS V14.01,2013-05-26 18:38:00,
2013-05-26 14:43:00,72.7,54.6,30.14,SW,227,1.0,2.0,53,0.00,,,0.00,VWS V14.01,2013-05-26 18:43:00,
2013-05-26 14:48:00,73.0,54.9,30.14,SW,232,1.0,2.0,53,0.00,,,0.00,VWS V14.01,2013-05-26 18:48:00,
2013-05-26 14:53:00,73.4,55.8,30.14,South,181,0.0,2.0,54,0.00,,,0.00,VWS V14.01,2013-05-26 18:53:00,
2013-05-26 14:58:00,73.4,54.2,30.14,SW,229,4.0,4.0,51,0.00,,,0.00,VWS V14.01,2013-05-26 18:58:00,
2013-05-26 15:03:00,73.4,55.8,30.14,SW,230,3.0,4.0,54,0.00,,,0.00,VWS V14.01,2013-05-26 19:03:00,
2013-05-26 15:08:00,73.9,55.2,30.14,SW,227,1.0,5.0,52,0.00,,,0.00,VWS V14.01,2013-05-26 19:08:00,
2013-05-26 15:13:00,73.9,54.7,30.14,SW,226,2.0,2.0,51,0.00,,,0.00,VWS V14.01,2013-05-26 19:13:00,
2013-05-26 15:18:00,74.3,55.0,30.14,SW,230,0.0,1.0,51,0.00,,,0.00,VWS V14.01,2013-05-26 19:18:00,
2013-05-26 15:23:00,74.1,54.8,30.14,SW,230,2.0,2.0,51,0.00,,,0.00,VWS V14.01,2013-05-26 19:23:00,
2013-05-26 15:28:00,74.4,55.7,30.13,SW,229,0.0,1.0,52,0.00,,,0.00,VWS V14.01,2013-05-26 19:28:00,
2013-05-26 15:33:00,74.9,57.7,30.13,SW,227,2.0,2.0,55,0.00,,,0.00,VWS V14.01,2013-05-26 19:33:00,
2013-05-26 15:38:00,75.0,56.2,30.13,SW,236,2.0,2.0,52,0.00,,,0.00,VWS V14.01,2013-05-26 19:38:00,
2013-05-26 15:43:00,74.8,56.0,30.13,SW,236,3.0,4.0,52,0.00,,,0.00,VWS V14.01,2013-05-26 19:43:00,
2013-05-26 15:48:00,75.0,56.2,30.12,SW,230,1.0,1.0,52,0.00,,,0.00,VWS V14.01,2013-05-26 19:48:00,
2013-05-26 15:53:00,75.4,57.1,30.12,South,175,0.0,2.0,53,0.00,,,0.00,VWS V14.01,2013-05-26 19:53:00,
2013-05-26 15:58:00,75.6,56.2,30.12,South,175,0.0,0.0,51,0.00,,,0.00,VWS V14.01,2013-05-26 19:58:00,
2013-05-26 16:03:00,75.8,55.9,30.12,South,175,0.0,1.0,50,0.00,,,0.00,VWS V14.01,2013-05-26 20:03:00,
2013-05-26 16:08:00,76.1,56.1,30.12,South,175,1.0,1.0,50,0.00,,,0.00,VWS V14.01,2013-05-26 20:08:00,
2013-05-26 16:13:00,76.3,56.9,30.12,South,175,1.0,1.0,51,0.00,,,0.00,VWS V14.01,2013-05-26 20:13:00,
2013-05-26 16:18:00,76.2,56.8,30.12,South,176,0.0,1.0,51,0.00,,,0.00,VWS V14.01,2013-05-26 20:18:00,
2013-05-26 16:23:00,75.8,55.3,30.12,South,186,4.0,4.0,49,0.00,,,0.00,VWS V14.01,2013-05-26 20:23:00,
2013-05-26 16:28:00,75.3,55.9,30.11,South,188,1.0,1.0,51,0.00,,,0.00,VWS V14.01,2013-05-26 20:28:00,
2013-05-26 16:33:00,75.5,56.7,30.11,ESE,121,2.0,3.0,52,0.00,,,0.00,VWS V14.01,2013-05-26 20:33:00,
2013-05-26 16:38:00,75.8,56.9,30.12,ESE,118,2.0,2.0,52,0.00,,,0.00,VWS V14.01,2013-05-26 20:38:00,
2013-05-26 16:43:00,75.9,57.6,30.11,ESE,120,1.0,2.0,53,0.00,,,0.00,VWS V14.01,2013-05-26 20:43:00,
2013-05-26 16:48:00,75.4,56.0,30.11,SSE,159,2.0,3.0,51,0.00,,,0.00,VWS V14.01,2013-05-26 20:48:00,
2013-05-26 16:53:00,75.7,57.9,30.11,SSE,159,0.0,0.0,54,0.00,,,0.00,VWS V14.01,2013-05-26 20:53:00,
2013-05-26 16:58:00,76.3,57.4,30.11,SSE,159,1.0,1.0,52,0.00,,,0.00,VWS V14.01,2013-05-26 20:58:00,
2013-05-26 17:03:00,76.0,57.7,30.11,SE,136,1.0,2.0,53,0.00,,,0.00,VWS V14.01,2013-05-26 21:03:00,
2013-05-26 17:08:00,76.0,57.1,30.11,SE,134,0.0,0.0,52,0.00,,,0.00,VWS V14.01,2013-05-26 21:08:00,
2013-05-26 17:13:00,76.5,57.6,30.10,SE,134,0.0,1.0,52,0.00,,,0.00,VWS V14.01,2013-05-26 21:13:00,
2013-05-26 17:18:00,76.7,56.7,30.10,SE,130,0.0,0.0,50,0.00,,,0.00,VWS V14.01,2013-05-26 21:18:00,
2013-05-26 17:23:00,76.9,57.4,30.10,SE,129,1.0,2.0,51,0.00,,,0.00,VWS V14.01,2013-05-26 21:23:00,
2013-05-26 17:28:00,77.2,57.7,30.10,SE,129,0.0,1.0,51,0.00,,,0.00,VWS V14.01,2013-05-26 21:28:00,
2013-05-26 17:33:00,77.1,57.6,30.10,SE,126,0.0,0.0,51,0.00,,,0.00,VWS V14.01,2013-05-26 21:33:00,
2013-05-26 17:38:00,76.9,57.4,30.10,SE,126,2.0,3.0,51,0.00,,,0.00,VWS V14.01,2013-05-26 21:38:00,
2013-05-26 17:44:00,76.6,57.7,30.10,SE,126,1.0,1.0,52,0.00,,,0.00,VWS V14.01,2013-05-26 21:44:00,
2013-05-26 17:49:00,76.5,57.6,30.10,SE,127,0.0,2.0,52,0.00,,,0.00,VWS V14.01,2013-05-26 21:49:00,
2013-05-26 17:54:00,76.3,57.9,30.09,SE,126,0.0,2.0,53,0.00,,,0.00,VWS V14.01,2013-05-26 21:54:00,
2013-05-26 17:59:00,76.5,58.6,30.09,ESE,123,0.0,0.0,54,0.00,,,0.00,VWS V14.01,2013-05-26 21:59:00,
2013-05-26 18:04:00,76.7,58.8,30.09,ESE,122,0.0,1.0,54,0.00,,,0.00,VWS V14.01,2013-05-26 22:04:00,
2013-05-26 18:09:00,76.8,58.4,30.09,ESE,122,0.0,0.0,53,0.00,,,0.00,VWS V14.01,2013-05-26 22:09:00,
2013-05-26 18:14:00,77.1,58.7,30.08,ESE,120,1.0,4.0,53,0.00,,,0.00,VWS V14.01,2013-05-26 22:14:00,
2013-05-26 18:19:00,76.6,58.7,30.08,ESE,117,1.0,1.0,54,0.00,,,0.00,VWS V14.01,2013-05-26 22:19:00,
2013-05-26 18:24:00,76.5,59.7,30.08,ESE,117,2.0,2.0,56,0.00,,,0.00,VWS V14.01,2013-05-26 22:24:00,
2013-05-26 18:29:00,76.4,58.5,30.08,ESE,105,0.0,1.0,54,0.00,,,0.00,VWS V14.01,2013-05-26 22:29:00,
2013-05-26 18:34:00,76.5,58.6,30.07,ESE,105,0.0,0.0,54,0.00,,,0.00,VWS V14.01,2013-05-26 22:34:00,
2013-05-26 18:39:00,76.6,58.7,30.07,ESE,105,1.0,1.0,54,0.00,,,0.00,VWS V14.01,2013-05-26 22:39:00,
2013-05-26 18:44:00,76.5,59.2,30.07,ESE,105,1.0,2.0,55,0.00,,,0.00,VWS V14.01,2013-05-26 22:44:00,
2013-05-26 18:49:00,76.1,58.3,30.06,ESE,104,2.0,2.0,54,0.00,,,0.00,VWS V14.01,2013-05-26 22:49:00,
2013-05-26 18:54:00,75.6,58.3,30.05,ESE,102,0.0,1.0,55,0.00,,,0.00,VWS V14.01,2013-05-26 22:54:00,
2013-05-26 18:59:00,75.7,59.4,30.05,ESE,103,0.0,1.0,57,0.00,,,0.00,VWS V14.01,2013-05-26 22:59:00,
2013-05-26 19:04:00,75.5,58.7,30.05,ESE,103,1.0,1.0,56,0.00,,,0.00,VWS V14.01,2013-05-26 23:04:00,
2013-05-26 19:09:00,75.2,58.4,30.05,ESE,102,0.0,1.0,56,0.00,,,0.00,VWS V14.01,2013-05-26 23:09:00,
2013-05-26 19:14:00,74.9,58.7,30.05,ESE,103,0.0,0.0,57,0.00,,,0.00,VWS V14.01,2013-05-26 23:14:00,
2013-05-26 19:19:00,74.7,58.5,30.05,ESE,102,0.0,0.0,57,0.00,,,0.00,VWS V14.01,2013-05-26 23:19:00,
2013-05-26 19:24:00,74.4,58.2,30.05,ESE,103,0.0,1.0,57,0.00,,,0.00,VWS V14.01,2013-05-26 23:24:00,
2013-05-26 19:29:00,74.2,58.0,30.05,ESE,102,0.0,1.0,57,0.00,,,0.00,VWS V14.01,2013-05-26 23:29:00,
2013-05-26 19:34:00,74.0,57.8,30.06,ESE,103,0.0,0.0,57,0.00,,,0.00,VWS V14.01,2013-05-26 23:34:00,
2013-05-26 19:39:00,73.7,58.0,30.06,ESE,103,0.0,0.0,58,0.00,,,0.00,VWS V14.01,2013-05-26 23:39:00,
2013-05-26 19:44:00,73.5,58.8,30.05,ESE,103,0.0,0.0,60,0.00,,,0.00,VWS V14.01,2013-05-26 23:44:00,
2013-05-26 19:49:00,73.3,58.6,30.06,ESE,103,0.0,0.0,60,0.00,,,0.00,VWS V14.01,2013-05-26 23:49:00,
2013-05-26 19:54:00,73.0,58.3,30.06,ESE,103,0.0,0.0,60,0.00,,,0.00,VWS V14.01,2013-05-26 23:54:00,
2013-05-26 19:59:00,72.7,58.5,30.06,ESE,102,0.0,0.0,61,0.00,,,0.00,VWS V14.01,2013-05-26 23:59:00,
2013-05-26 20:04:00,72.4,58.2,30.06,ESE,102,0.0,1.0,61,0.00,,,0.00,VWS V14.01,2013-05-27 00:04:00,
2013-05-26 20:09:00,72.2,58.0,30.06,ESE,102,0.0,0.0,61,0.00,,,0.00,VWS V14.01,2013-05-27 00:09:00,
2013-05-26 20:14:00,71.9,58.6,30.06,ESE,103,0.0,1.0,63,0.00,,,0.00,VWS V14.01,2013-05-27 00:14:00,
2013-05-26 20:19:00,71.6,58.8,30.06,ESE,103,0.0,0.0,64,0.00,,,0.00,VWS V14.01,2013-05-27 00:19:00,
2013-05-26 20:24:00,71.3,58.1,30.06,ESE,102,0.0,0.0,63,0.00,,,0.00,VWS V14.01,2013-05-27 00:24:00,
2013-05-26 20:29:00,70.9,58.1,30.06,ESE,103,0.0,0.0,64,0.00,,,0.00,VWS V14.01,2013-05-27 00:29:00,
2013-05-26 20:34:00,70.6,58.3,30.06,ESE,102,0.0,0.0,65,0.00,,,0.00,VWS V14.01,2013-05-27 00:34:00,
2013-05-26 20:39:00,70.2,57.9,30.06,ESE,103,0.0,0.0,65,0.00,,,0.00,VWS V14.01,2013-05-27 00:39:00,
2013-05-26 20:44:00,69.8,57.9,30.06,ESE,102,0.0,0.0,66,0.00,,,0.00,VWS V14.01,2013-05-27 00:44:00,
2013-05-26 20:49:00,69.4,57.6,30.07,ESE,102,0.0,0.0,66,0.00,,,0.00,VWS V14.01,2013-05-27 00:49:00,
2013-05-26 20:54:00,69.1,57.7,30.07,ESE,103,0.0,0.0,67,0.00,,,0.00,VWS V14.01,2013-05-27 00:54:00,
2013-05-26 20:59:00,68.8,57.4,30.06,ESE,102,0.0,0.0,67,0.00,,,0.00,VWS V14.01,2013-05-27 00:59:00,
2013-05-26 21:04:00,68.4,57.4,30.06,ESE,103,0.0,0.0,68,0.00,,,0.00,VWS V14.01,2013-05-27 01:04:00,
2013-05-26 21:09:00,68.0,57.5,30.06,ESE,103,0.0,0.0,69,0.00,,,0.00,VWS V14.01,2013-05-27 01:09:00,
2013-05-26 21:14:00,67.7,57.6,30.06,ESE,103,0.0,0.0,70,0.00,,,0.00,VWS V14.01,2013-05-27 01:14:00,
2013-05-26 21:20:00,67.5,57.8,30.07,ESE,103,0.0,0.0,71,0.00,,,0.00,VWS V14.01,2013-05-27 01:20:00,
2013-05-26 21:25:00,67.2,57.1,30.06,ESE,102,0.0,0.0,70,0.00,,,0.00,VWS V14.01,2013-05-27 01:25:00,
2013-05-26 21:30:00,67.0,57.3,30.07,ESE,103,0.0,0.0,71,0.00,,,0.00,VWS V14.01,2013-05-27 01:30:00,
2013-05-26 21:35:00,66.8,57.1,30.07,ESE,102,0.0,0.0,71,0.00,,,0.00,VWS V14.01,2013-05-27 01:35:00,
2013-05-26 21:40:00,66.7,57.0,30.07,ESE,103,0.0,0.0,71,0.00,,,0.00,VWS V14.01,2013-05-27 01:40:00,
2013-05-26 21:45:00,66.6,56.9,30.07,ESE,103,0.0,0.0,71,0.00,,,0.00,VWS V14.01,2013-05-27 01:45:00,
2013-05-26 21:50:00,66.4,56.7,30.07,ESE,102,0.0,0.0,71,0.00,,,0.00,VWS V14.01,2013-05-27 01:50:00,
2013-05-26 21:55:00,66.3,56.6,30.07,ESE,103,0.0,0.0,71,0.00,,,0.00,VWS V14.01,2013-05-27 01:55:00,
2013-05-26 22:00:00,66.4,57.1,30.07,ESE,103,0.0,0.0,72,0.00,,,0.00,VWS V14.01,2013-05-27 02:00:00,
2013-05-26 22:05:00,66.3,57.0,30.07,ESE,103,0.0,1.0,72,0.00,,,0.00,VWS V14.01,2013-05-27 02:05:00,
2013-05-26 22:10:00,66.2,56.9,30.07,ESE,103,0.0,0.0,72,0.00,,,0.00,VWS V14.01,2013-05-27 02:10:00,
2013-05-26 22:15:00,66.1,56.8,30.07,ESE,103,0.0,0.0,72,0.00,,,0.00,VWS V14.01,2013-05-27 02:15:00,
2013-05-26 22:20:00,66.0,57.1,30.07,ESE,102,0.0,0.0,73,0.00,,,0.00,VWS V14.01,2013-05-27 02:20:00,
2013-05-26 22:25:00,65.8,56.9,30.07,ESE,102,0.0,0.0,73,0.00,,,0.00,VWS V14.01,2013-05-27 02:25:00,
2013-05-26 22:30:00,65.7,56.8,30.07,ESE,103,0.0,0.0,73,0.00,,,0.00,VWS V14.01,2013-05-27 02:30:00,
2013-05-26 22:35:00,65.6,56.7,30.07,ESE,103,0.0,0.0,73,0.00,,,0.00,VWS V14.01,2013-05-27 02:35:00,
2013-05-26 22:40:00,65.6,56.3,30.07,ESE,103,0.0,0.0,72,0.00,,,0.00,VWS V14.01,2013-05-27 02:40:00,
2013-05-26 22:45:00,65.6,56.3,30.07,ESE,103,0.0,0.0,72,0.00,,,0.00,VWS V14.01,2013-05-27 02:45:00,
2013-05-26 22:50:00,65.4,56.5,30.07,ESE,103,0.0,0.0,73,0.00,,,0.00,VWS V14.01,2013-05-27 02:50:00,
2013-05-26 22:55:00,65.4,56.2,30.07,ESE,103,0.0,0.0,72,0.00,,,0.00,VWS V14.01,2013-05-27 02:55:00,
2013-05-26 23:00:00,65.4,56.2,30.07,ESE,102,0.0,0.0,72,0.00,,,0.00,VWS V14.01,2013-05-27 03:00:00,
2013-05-26 23:05:00,65.4,56.2,30.08,ESE,103,0.0,0.0,72,0.00,,,0.00,VWS V14.01,2013-05-27 03:05:00,
2013-05-26 23:10:00,65.3,56.4,30.08,ESE,102,0.0,0.0,73,0.00,,,0.00,VWS V14.01,2013-05-27 03:10:00,
2013-05-26 23:15:00,65.1,56.6,30.08,ESE,103,0.0,0.0,74,0.00,,,0.00,VWS V14.01,2013-05-27 03:15:00,
2013-05-26 23:20:00,64.8,56.3,30.08,ESE,103,0.0,0.0,74,0.00,,,0.00,VWS V14.01,2013-05-27 03:20:00,
2013-05-26 23:25:00,64.5,56.4,30.08,ESE,102,0.0,0.0,75,0.00,,,0.00,VWS V14.01,2013-05-27 03:25:00,
2013-05-26 23:30:00,64.3,56.2,30.08,ESE,103,0.0,0.0,75,0.00,,,0.00,VWS V14.01,2013-05-27 03:30:00,
2013-05-26 23:35:00,64.1,56.0,30.08,ESE,102,0.0,0.0,75,0.00,,,0.00,VWS V14.01,2013-05-27 03:35:00,
2013-05-26 23:40:00,63.8,56.1,30.08,ESE,103,0.0,0.0,76,0.00,,,0.00,VWS V14.01,2013-05-27 03:40:00,
2013-05-26 23:45:00,63.6,55.9,30.07,ESE,102,0.0,0.0,76,0.00,,,0.00,VWS V14.01,2013-05-27 03:45:00,
2013-05-26 23:50:00,63.4,55.7,30.07,ESE,102,0.0,0.0,76,0.00,,,0.00,VWS V14.01,2013-05-27 03:50:00,
2013-05-26 23:55:00,63.1,55.8,30.07,ESE,103,0.0,0.0,77,0.00,,,0.00,VWS V14.01,2013-05-27 03:55:00,